Weather Roundup
Issued by NWS Chicago, IL

Home | Current Version | Previous Version | Graphics & Text | Print | Product List | Glossary On
Versions: 1 2 3 4 5 6 7 8 9 10 11 12 13 14 15 16 17 18 19 20 21 22 23 24 25 26 27 28 29 30 31 32 33 34 35 36 37 38 39 40 41 42 43 44 45 46 47 48 49 50
845
NZUS59 KLOT 271708
HRRLOT

CHICAGO AREA WEATHER ROUNDUP
NATIONAL WEATHER SERVICE CHICAGO/ROMEOVILLE IL
1100 AM CST MON FEB 27 2017

NOTE: "FAIR" INDICATES FEW OR NO CLOUDS BELOW 12,000 FEET WITH NO
SIGNIFICANT WEATHER AND/OR OBSTRUCTIONS TO VISIBILITY.

* THESE STATIONS ARE NOT UNDER NWS QUALITY CONTROL. THEY ALSO MAY NOT
  REPORT WEATHER SUCH AS PRECIPITATION OR FOG.

ILZ005-006-012>014-019>023-271800-
NORTHEAST ILLINOIS

CITY           SKY/WX    TMP DP  RH WIND       PRES   REMARKS
OHARE          SUNNY     47  32  56 S7        30.14F
MIDWAY         MOSUNNY   46  32  58 S9G18     30.16F
AURORA         MOSUNNY   44  35  70 S13       30.15S
LANSING*       MOSUNNY   46  37  69 S10       30.18F
JOLIET*        MOSUNNY   48  37  65 S6        30.16F
WAUKEGAN       MOSUNNY   41  31  67 SE9       30.14F
DUPAGE AIRPORT SUNNY     46  33  60 S8        30.14F
WHEELING       SUNNY     46  30  53 S7        30.16F
KANKAKEE*      MOSUNNY   50  36  58 S9G17     30.17F
MORRIS*        MOSUNNY   47  35  64 S9        30.16S
LEWIS AIRPORT* PTSUNNY   46  38  75 S8        30.16S
NORTHERLY ISL    N/A     42  33  70 E12         N/A
$$

WIZ051-052-058>065-066-070>072-271800-
SOUTHEAST WISCONSIN

CITY           SKY/WX    TMP DP  RH WIND       PRES   REMARKS
MILWAUKEE      MOSUNNY   42  30  62 SE14      30.15F
KENOSHA*       PTSUNNY   41  30  65 SE9       30.14F
RACINE*        CLOUDY    39  29  67 S12       30.16F
WAUKESHA       SUNNY     39  25  56 SE10G17   30.14F
WEST BEND      SUNNY     39  25  56 S9        30.13S
$$

INZ001>003-010>013-019-020-271800-
NORTHWEST INDIANA

CITY           SKY/WX    TMP DP  RH WIND       PRES   REMARKS
GARY*          MOSUNNY   46  32  57 S8        30.18F
MICHIGAN CITY* NOT AVBL
RENSSELAER*    NOT AVBL
VALPARAISO     MOSUNNY   47  35  63 S9G17     30.18F
$$

LMZ740>746-271800-
SOUTHERN LAKE MICHIGAN

STATION/POSITION TIME  SKY/WX   TEMP WIND        PRES    VSBY
                                AIR  DIR/SP/G
                 (UTC)          (F)  (DEG/KT/KT) (MB)    (MI)
HARRISON CRIB    1640            38  140/ 11/ 13   N/A
BURNHAM HARBOR   1700            43  110/  9/ 11   N/A
CALUMET HARBOR   1648            43  160/  9/ 13 1021.0F
BURNS HARBOR     1630            43  190/  7/ 13 1022.7F
MICHIGAN CITY    1640            42  140/  7/ 10   N/A
$$

ABBREVIATIONS USED IN REMARKS
   TC - TEMPERATURE IN CELSIUS
  WCI - WIND CHILL INDEX
   HX - HEAT INDEX
  VSB - VISIBILITY
$$




USA.gov is the U.S. government's official web portal to all federal, state and local government web resources and services.